Flag for United Kingdom Weather past 2 weeks in Exeter, England, United Kingdom

Now
59 °F

Clear.


Feels Like: 59 °F
Forecast: 58 / 71 °F
Wind: 5 mph from Northeast

Location: Exeter Airport

Current Time: Jul 26, 2014 at 6:27:42 AM

Latest Report: Jul 26, 2014 at 5:20 AM


Visibility: 10 mi

Pressure: 30.04 "Hg

Humidity: 94%

Dew point: 57 °F

Location of ExeterLocation

Historic Weather in Exeter — Graph

°F

Exeter temperature yesterday

Maximum temperature yesterday: 81 °F (at 2:20 PM)
Minimum temperature yesterday: 59 °F (at 2:20 AM)
Average temperature yesterday: 70 °F

Past Weeks' High & Low Weather Summary

 TemperatureHumidityPressure
High81 °F (Jul 24, 2:20 PM)100% (Jul 11, 5:20 AM)30.21 "Hg (Jul 11, 5:20 AM)
Low52 °F (Jul 14, 6:50 AM)45% (Jul 25, 2:20 PM)29.74 "Hg (Jul 19, 11:50 AM)
Average67 °F76%30.00 "Hg
* Reported Jul 11 5:20 AM — Jul 26 3:20 AM, Exeter, Weather by CustomWeather, © 2014

Note: Actual official high and low records may vary slightly from our data, if they occured in-between our weather recording intervals... More about our weather records

Advertising

Exeter weather history for previous 24 hours

 ConditionsComfort  
Time TempWeatherWind HumidityBarometerVisibility
3:20 AM
Jul 26
61 °FClear.3 mph88%30.04 "Hg10 mi
2:50 AM59 °FClear.5 mph94%30.04 "Hg10 mi
2:20 AM61 °FClear.3 mph88%30.04 "Hg10 mi
1:50 AM59 °FClear.2 mph94%30.04 "Hg10 mi
1:20 AM63 °FClear.2 mph88%30.04 "Hg10 mi
12:50 AM63 °FClear.2 mph88%30.04 "Hg10 mi
12:20 AM63 °FClear.3 mph88%30.04 "Hg10 mi
11:50 PM
Jul 25
63 °FPassing clouds.3 mph88%30.04 "HgN/A
11:20 PM64 °FPassing clouds.3 mph83%30.04 "HgN/A
10:50 PM66 °FPassing clouds.3 mph78%30.04 "HgN/A
10:20 PM68 °FPassing clouds.3 mph73%30.04 "HgN/A
9:50 PM68 °FPassing clouds.5 mph73%30.04 "HgN/A
9:20 PM70 °FPassing clouds.6 mph69%30.04 "HgN/A
8:50 PM72 °FPassing clouds.5 mph61%30.01 "HgN/A
8:20 PM75 °FPassing clouds.6 mph61%30.01 "HgN/A
7:50 PM75 °FPassing clouds.7 mph57%30.01 "HgN/A
7:20 PM77 °FSunny.7 mph54%30.01 "Hg10 mi
6:50 PM77 °FSunny.9 mph54%30.01 "Hg10 mi
6:20 PM77 °FSunny.9 mph54%30.01 "Hg10 mi
5:50 PM77 °FPassing clouds.10 mph57%30.01 "HgN/A
5:20 PM77 °FPassing clouds.9 mph57%30.01 "HgN/A
4:50 PM77 °FSunny.12 mph54%30.01 "Hg10 mi
4:20 PM81 °FPassing clouds.6 mph48%30.01 "HgN/A
3:50 PM81 °FPassing clouds.7 mph45%30.01 "HgN/A
3:20 PM79 °FPassing clouds.7 mph48%30.01 "HgN/A
2:50 PM79 °FPassing clouds.7 mph48%30.01 "HgN/A
2:20 PM81 °FPassing clouds.7 mph45%30.01 "HgN/A
1:20 PM79 °FPassing clouds.9 mph51%30.01 "HgN/A
12:50 PM77 °FPassing clouds.9 mph54%30.04 "HgN/A
12:20 PM77 °FPassing clouds.12 mph54%30.04 "HgN/A
11:50 AM77 °FPassing clouds.9 mph57%30.04 "HgN/A
11:20 AM75 °FSunny.10 mph61%30.04 "Hg10 mi
10:50 AM73 °FPassing clouds.9 mph61%30.04 "HgN/A
10:20 AM72 °FSunny.9 mph65%30.04 "Hg10 mi
9:20 AM68 °FPassing clouds.8 mph73%30.04 "HgN/A
8:50 AM68 °FPassing clouds.7 mph73%30.04 "HgN/A
8:20 AM66 °FPassing clouds.5 mph78%30.04 "HgN/A
7:50 AM64 °FPassing clouds.1 mph88%30.04 "HgN/A
7:20 AM61 °FPassing clouds.3 mph94%30.04 "HgN/A
6:50 AM59 °FPassing clouds.3 mph94%30.04 "HgN/A
6:20 AM59 °FFog.2 mph94%30.04 "HgN/A
Weather by CustomWeather, © 2014

See weather overviewHow to use our weather pages